Location: Recife
(8.0585°S, 34.8848°W)
Time: 12:28:34
(UTC-03:00)

Courier 1B - Pass Details

Date: 19 April 2026
Orbit: 962 x 1209 km, 28.3° (Epoch: 7 May)

Event Time Altitude Azimuth Distance (km) Brightness Sun altitude
Rises 15:09:26 0° 260° (W) 3,953 11.6 29.4°
Reaches altitude 10° 15:12:41 10° 271° (W) 2,949 11.5 28.6°
Maximum altitude 15:18:43 29° 328° (NNW) 1,836 10.0 27.2°
Drops below altitude 10° 15:24:27 10° 26° (NNE) 2,788 9.9 25.9°
Sets 15:27:27 0° 37° (NE) 3,703 10.3 25.1°
